Home > Weather > Port Angeles > Past weeks

Flag for USA Past Weather in Port Angeles, Washington, USA — Yesterday and Last 2 Weeks

Now
62 °F

Overcast.


Feels Like: 62 °F
Forecast: 54 / 63 °F
Wind: 3 mph from North

Location: William R. Fairchild International Airport

Current Time: Aug 28, 2016 at 2:02:38 PM

Latest Report: Aug 28, 2016 at 12:53 PM


Visibility: 10 mi

Pressure: 30.10 "Hg

Humidity: 65%

Dew Point: 50 °F

Location of Port AngelesLocation

Past Weather in Port Angeles — Graph

°F

Port Angeles Temperature Yesterday

Maximum temperature yesterday: 65 °F (at 1:53 PM)
Minimum temperature yesterday: 55 °F (at 8:53 PM)
Average temperature yesterday: 60 °F

High & Low Weather Summary for the Past Weeks

 TemperatureHumidityPressure
High93 °F (Aug 18, 3:53 PM)97% (Aug 14, 2:53 AM)30.27 "Hg (Aug 14, 2:53 AM)
Low48 °F (Aug 22, 5:53 AM)13% (Aug 18, 4:53 PM)29.77 "Hg (Aug 27, 1:53 AM)
Average65 °F63%30.03 "Hg
* Reported Aug 13 12:53 PM — Aug 28 12:53 PM, Port Angeles, Weather by CustomWeather, © 2016

Note: Actual official high and low records may vary slightly from our data, if they occured in-between our weather recording intervals... More about our weather records

Advertising

Port Angeles Weather History for the Previous 24 Hours

Scroll right to see more
 ConditionsComfort  
Time TempWeatherWind HumidityBarometerVisibility
12:53 PM
Sun, Aug 28
62 °FOvercast.3 mph65%30.10 "Hg10 mi
11:53 AM62 °FOvercast.6 mph70%30.09 "Hg10 mi
10:53 AM61 °FOvercast.6 mph72%30.09 "Hg10 mi
9:53 AM60 °FMore clouds than sun.3 mph75%30.08 "Hg10 mi
8:53 AM60 °FOvercast.No wind72%30.08 "Hg10 mi
7:53 AM58 °FMostly cloudy.No wind81%30.07 "Hg10 mi
6:53 AM57 °FOvercast.No wind81%30.06 "Hg10 mi
5:53 AM55 °FMostly cloudy.No wind83%30.04 "Hg10 mi
4:53 AM57 °FOvercast.No wind81%30.04 "Hg10 mi
3:53 AM57 °FOvercast.3 mph81%30.04 "Hg10 mi
2:53 AM56 °FOvercast.7 mph84%30.03 "Hg10 mi
1:53 AM56 °FOvercast.No wind81%30.02 "Hg10 mi
12:53 AM57 °FOvercast.5 mph78%30.01 "Hg10 mi
11:53 PM
Sat, Aug 27
55 °FClear.7 mph80%29.99 "Hg10 mi
10:53 PM56 °FClear.8 mph81%29.98 "Hg10 mi
9:53 PM55 °FClear.3 mph83%29.97 "Hg10 mi
8:53 PM55 °FPassing clouds.No wind83%29.96 "Hg10 mi
7:53 PM58 °FSunny.5 mph78%29.94 "Hg10 mi
6:53 PM59 °FSunny.12 mph75%29.93 "Hg10 mi
5:53 PM62 °FSunny.9 mph70%29.93 "Hg10 mi
4:53 PM63 °FSunny.13 mph68%29.91 "Hg10 mi
3:53 PM63 °FSunny.14 mph68%29.90 "Hg10 mi
2:53 PM64 °FSunny.15 mph68%29.89 "Hg10 mi
Weather by CustomWeather, © 2016

See weather overviewHow to use our weather pages